Home   Weather   Pulheim   Past weeks

Flag for Germany Past Weather in Pulheim, North Rhine-Westphalia, Germany — Yesterday and Last 2 Weeks

Now
36 °F

Passing clouds.


Feels Like: 30 °F
Forecast: 37 / 47 °F
Wind: 7 mph from South

Location: Noervenich

Current Time: Dec 8, 2016 at 1:31:46 am

Latest Report: Dec 8, 2016 at 12:20 am


Visibility: N/A

Pressure: 30.45 "Hg

Humidity: 87%

Dew Point: 32 °F

Location of PulheimLocation

Past Weather in Pulheim — Graph

°F

Pulheim Temperature Yesterday

Maximum temperature yesterday: 43 °F (at 2:20 pm)
Minimum temperature yesterday: 30 °F (at 12:20 am)
Average temperature yesterday: 36 °F

High & Low Weather Summary for the Past Weeks

 TemperatureHumidityPressure
High55 °F (Nov 24, 1:20 pm)100% (Nov 23, 5:20 am)30.57 "Hg (Nov 23, 5:20 am)
Low19 °F (Nov 30, 2:20 am)45% (Nov 30, 2:20 pm)29.98 "Hg (Nov 22, 11:20 pm)
Average37 °F87%30.27 "Hg
* Reported Nov 22 11:20 pm — Dec 7 11:20 pm, Pulheim, Weather by CustomWeather, © 2016

Note: Actual official high and low records may vary slightly from our data, if they occured in-between our weather recording intervals... More about our weather records

Advertising

Pulheim Weather History for the Previous 24 Hours

Scroll right to see more
 ConditionsComfort  
Time TempWeatherWind HumidityBarometerVisibility
11:20 pm
Wed, Dec 7
37 °FPassing clouds.8 mph87%30.48 "HgN/A
10:20 pm39 °FPassing clouds.2 mph81%30.45 "HgN/A
10:00 pm39 °FPassing clouds.5 mph81%30.45 "HgN/A
9:20 pm41 °FPassing clouds.3 mph76%30.45 "HgN/A
9:00 pm39 °FPassing clouds.6 mph81%30.45 "HgN/A
8:20 pm41 °FPartly cloudy.3 mph81%30.45 "HgN/A
7:20 pm37 °FPartly cloudy.5 mph87%30.45 "HgN/A
6:20 pm37 °FPassing clouds.7 mph87%30.45 "HgN/A
5:20 pm39 °FPassing clouds.3 mph87%30.45 "HgN/A
4:20 pm41 °FBroken clouds.5 mph81%30.42 "HgN/A
3:20 pm43 °FPartly sunny.5 mph76%30.42 "HgN/A
2:20 pm43 °FPartly sunny.6 mph76%30.42 "HgN/A
1:20 pm39 °FPartly sunny.5 mph81%30.42 "HgN/A
12:20 pm37 °FPartly sunny.5 mph81%30.45 "HgN/A
11:20 am36 °FPartly sunny.6 mph81%30.48 "HgN/A
10:20 am34 °FPartly sunny.6 mph87%30.48 "HgN/A
9:20 am32 °FBroken clouds.5 mph87%30.45 "HgN/A
8:20 am30 °FPassing clouds.6 mph93%30.45 "HgN/A
7:20 am30 °FPassing clouds.6 mph93%30.45 "HgN/A
6:20 am30 °FPassing clouds.6 mph93%30.45 "HgN/A
5:20 am30 °FPassing clouds.6 mph93%30.45 "HgN/A
4:20 am30 °FPassing clouds.5 mph93%30.48 "HgN/A
3:20 am30 °FPassing clouds.6 mph93%30.48 "HgN/A
2:20 am30 °FPassing clouds.7 mph93%30.45 "HgN/A
1:20 am30 °FPassing clouds.6 mph93%30.48 "HgN/A
Weather by CustomWeather, © 2016

See weather overviewHow to use our weather pages